Wind_Speed
19 17 17 16 17 17 17 18 17 17 17 18 18 18 19 18 18 19 19 18 17 16 16 15 13 12 12 11 10 10 8 8 7 7 8 7 7 8 3 4 6 7 8
16 16 17 15 15 16 16 16 16 15 15 16 16 17 17 16 16 16 16 16 16 15 13 13 13 13 13 10 10 8 7 5 4 4 2 3 3 2 2 1 1 1 6
17 17 17 16 15 16 16 16 16 15 15 16 16 16 16 16 15 14 13 13 13 12 12 11 11 10 9 8 8 7 5 2 3 4 4 3 1 2 5 4 2 4 7
17 17 16 15 15 15 16 15 15 15 15 15 15 14 14 14 14 14 13 10 9 9 9 9 8 7 8 9 7 5 4 2 2 3 5 3 1 2 1 2 3 4 9
17 16 15 14 14 14 14 14 14 15 15 15 15 15 13 13 11 11 12 12 11 9 7 7 7 7 7 7 7 6 5 4 3 5 6 3 2 1 4 7 3 6 12
17 15 14 13 13 12 12 12 12 14 14 13 13 13 13 12 11 10 9 10 10 9 8 7 6 6 6 7 7 6 6 4 4 5 5 3 2 1 2 5 8 9 11
15 13 13 12 12 11 11 11 11 13 12 12 12 12 11 11 10 9 10 9 9 9 8 7 6 5 6 5 5 4 4 4 4 4 4 2 2 2 4 5 5 6 11
14 12 11 10 10 10 9 10 11 12 11 11 11 10 11 10 9 8 8 8 8 8 8 7 5 4 4 4 4 4 4 4 4 3 3 3 2 3 3 5 7 8 9
13 12 10 9 9 9 10 10 11 11 11 10 9 9 9 8 8 8 7 8 8 8 7 5 4 3 4 4 5 5 5 5 3 3 4 5 5 5 5 6 7 9 9
11 10 9 8 9 11 12 12 11 10 10 10 9 8 8 7 7 8 8 8 7 5 3 4 4 4 4 4 4 4 4 5 5 4 4 6 7 6 6 7 7 8 9
10 10 9 10 11 13 13 13 13 11 10 9 8 9 7 7 7 7 6 5 4 2 3 4 6 4 5 6 4 3 2 3 4 5 5 8 8 8 10 10 10 11 11
10 9 10 12 13 14 14 13 13 10 9 8 8 8 7 8 6 4 5 3 2 3 4 3 3 4 5 4 4 4 4 5 4 4 4 4 6 8 7 8 8 9 9
10 10 11 13 12 13 13 12 10 7 6 7 6 7 6 6 5 5 5 4 1 1 2 1 1 2 3 2 4 4 3 6 7 5 7 7 8 8 7 8 10 9 9
11 10 10 11 12 11 10 9 8 6 5 4 3 3 2 5 3 4 3 2 0 2 1 2 1 1 1 2 3 5 7 7 9 11 12 9 8 7 6 9 13 12 11
9 9 9 9 11 10 8 8 8 6 3 3 3 3 4 1 5 1 3 4 1 2 2 1 1 3 3 3 4 5 8 10 12 13 15 13 11 12 12 13 12 14 16
9 9 9 9 9 9 7 6 5 5 6 5 3 3 3 4 5 3 3 4 2 1 1 1 1 3 5 6 7 10 10 13 15 17 17 17 16 17 18 19 18 18 15
8 7 8 9 9 9 6 6 5 6 5 5 5 5 0 6 4 5 4 1 2 1 1 4 7 6 7 8 11 13 17 19 22 19 20 19 22 19 22 21 21 20 18
7 7 7 9 9 9 6 6 4 3 3 3 5 5 2 4 4 4 4 1 3 5 5 5 5 6 9 11 13 15 18 20 20 17 20 19 20 23 21 23 23 22 20
7 7 8 9 10 9 5 5 4 3 2 2 4 5 3 4 4 2 2 0 2 1 2 2 5 8 11 13 15 17 18 20 17 13 21 20 21 21 21 20 21 23 21
10 11 11 11 10 8 8 4 6 6 4 5 4 5 5 5 6 4 4 4 3 3 3 5 9 12 15 16 19 19 17 17 16 16 21 23 25 24 22 27 20 23 22
13 13 12 13 11 9 9 7 6 4 5 6 5 6 5 6 7 6 5 6 7 6 7 10 12 14 16 19 22 20 19 17 15 19 23 27 27 29 26 25 20 21 24
13 13 14 15 13 9 9 9 8 6 5 6 8 7 5 5 5 4 4 4 5 7 8 11 14 17 20 22 23 22 20 20 19 19 24 32 40 20 22 12 17 19 22
13 14 14 14 13 12 10 8 8 8 6 6 9 10 7 6 5 4 5 6 6 8 10 14 16 19 21 22 22 22 23 22 23 22 23 27 11 18 17 16 19 20 24
12 15 16 15 13 13 11 9 8 10 9 6 9 12 9 8 7 6 7 8 11 13 13 14 17 20 22 24 23 19 20 22 25 29 25 15 13 18 13 21 18 20 23
16 16 16 15 15 16 13 10 9 9 9 7 6 10 9 9 10 10 11 13 14 15 17 18 19 21 24 25 26 24 29 37 33 32 31 25 15 14 17 18 20 16 16
17 18 19 18 16 16 15 12 10 9 9 9 8 8 9 10 11 13 15 15 17 18 19 20 23 24 26 28 28 29 42 42 29 26 24 22 4 8 15 13 16 16 23
Wind_Direction
128 120 119 118 112 110 104 103 102 102 102 101 100 99 100 101 102 108 111 114 117 120 122 125 126 131 129 122 118 123 124 124 128 120 109 102 105 122 221 103 96 82 90
135 129 123 118 113 105 103 104 104 104 103 102 101 100 101 102 105 107 113 118 122 125 124 121 124 125 131 136 143 133 127 125 138 157 167 123 117 141 183 198 246 88 108
125 123 121 118 113 107 107 106 105 105 102 99 100 101 101 102 107 116 122 126 127 132 136 132 133 140 140 143 139 146 141 163 211 207 202 224 291 238 239 226 211 209 182
124 123 120 118 114 114 111 107 108 106 102 101 102 104 103 106 107 111 115 122 130 133 129 128 131 133 131 134 145 145 138 124 135 173 202 203 174 86 66 168 177 204 194
126 123 124 125 127 115 110 113 114 113 112 107 104 107 110 107 107 111 116 119 122 128 131 132 134 137 147 143 146 143 134 113 148 172 168 188 196 127 66 119 83 141 153
128 126 132 136 119 119 121 124 124 120 115 110 107 106 107 106 103 105 110 109 116 120 121 124 138 145 151 160 171 171 176 184 135 135 166 183 224 174 105 137 106 132 136
127 139 141 130 126 129 127 138 137 127 118 114 108 108 111 109 104 103 105 109 110 109 120 129 136 143 156 165 174 177 180 205 208 212 211 183 187 183 188 185 168 140 161
143 141 136 135 131 131 145 149 143 131 124 117 117 121 114 107 106 103 103 106 109 111 111 121 129 127 138 155 176 180 193 213 203 192 198 188 206 198 190 209 222 217 227
143 141 140 131 133 145 156 153 140 134 129 125 125 119 112 114 112 107 108 112 114 119 124 130 135 159 167 168 162 174 187 198 209 208 203 204 198 208 216 204 222 231 228
145 135 131 133 149 158 156 144 134 130 132 127 121 112 111 116 121 123 126 127 129 137 144 138 121 156 174 169 179 198 195 198 195 211 216 206 205 215 229 227 232 234 236
139 135 132 141 148 144 138 135 132 143 131 122 121 109 108 117 122 122 127 132 134 115 91 116 107 122 139 133 127 163 195 194 226 244 251 246 235 237 244 246 250 248 245
139 137 141 138 133 133 139 136 135 137 125 104 110 127 107 118 107 126 135 147 158 143 160 161 144 133 147 167 172 188 221 209 207 226 241 246 235 239 243 250 256 258 255
145 145 144 134 135 140 142 135 134 143 132 116 105 124 108 138 118 86 146 165 241 231 196 169 170 180 190 186 207 222 264 229 225 245 264 244 252 249 248 260 259 259 260
155 148 145 142 142 145 141 139 138 149 136 133 123 168 184 133 140 89 126 110 295 262 285 259 271 76 348 317 289 276 278 266 264 275 267 258 258 260 248 256 267 266 263
153 151 152 150 147 142 143 146 140 139 147 133 134 146 155 107 134 164 108 93 356 357 301 309 229 239 269 263 277 289 289 287 281 276 269 275 275 273 275 277 278 272 269
162 160 162 164 154 152 155 163 154 143 145 153 174 144 95 174 145 133 138 74 35 28 164 211 268 286 298 310 308 298 289 289 285 280 271 276 280 275 279 280 288 274 278
166 165 167 174 169 175 187 185 167 139 157 185 188 183 117 166 148 141 154 127 107 74 280 271 280 292 311 316 312 307 299 292 287 276 273 268 268 274 274 275 282 279 280
167 172 172 191 189 189 196 194 192 155 139 172 201 209 252 156 171 206 242 113 359 357 340 320 306 319 319 314 306 303 295 293 286 269 272 277 279 268 267 267 271 272 278
181 185 187 196 196 193 194 192 209 235 187 189 227 233 207 210 216 184 155 191 273 290 331 328 316 309 307 310 308 308 306 306 302 287 285 282 275 273 266 259 269 275 281
189 198 201 207 212 208 214 222 214 239 228 205 239 228 218 194 186 206 233 229 248 265 289 314 322 321 320 310 311 313 316 318 295 277 284 277 275 273 271 269 254 269 275
193 200 203 210 216 220 219 222 221 216 225 233 215 224 226 209 228 247 237 238 276 286 308 319 323 325 320 319 319 324 328 318 311 288 286 285 286 288 282 278 249 261 271
198 199 207 208 211 217 217 221 222 221 225 234 229 218 220 223 219 238 275 296 304 315 321 316 319 323 323 327 330 331 332 326 317 312 305 289 275 285 282 297 259 268 273
213 208 202 209 216 218 218 231 236 230 230 231 219 229 234 251 260 284 297 311 315 306 301 302 310 313 317 322 328 327 325 326 320 310 313 316 315 274 299 276 268 278 278
208 210 206 211 218 222 221 228 240 230 234 244 230 234 243 254 271 290 304 309 303 302 306 302 305 311 315 319 319 316 308 303 305 303 306 300 303 289 285 280 280 279 282
210 212 207 212 220 223 223 227 238 237 242 253 245 228 245 259 259 267 277 288 297 298 300 301 306 308 312 316 316 312 307 300 302 296 291 299 287 269 274 286 283 286 278
211 213 221 225 225 229 229 228 229 232 244 253 262 252 257 263 273 282 288 294 293 295 301 308 311 313 314 314 314 308 307 316 311 305 299 305 328 271 292 298 286 289 288
Height
3181 3183 3184 3185 3186 3186 3186 3187 3188 3189 3188 3189 3190 3191 3190 3191 3192 3192 3192 3193 3194 3195 3196 3198 3199 3200 3201 3203 3203 3203 3203 3203 3204 3205 3205 3205 3206 3206 3207 3206 3206 3206 3208
3183 3184 3185 3187 3188 3188 3189 3189 3190 3190 3191 3191 3192 3193 3193 3193 3193 3194 3194 3195 3196 3197 3198 3199 3200 3202 3203 3203 3203 3204 3204 3204 3205 3205 3205 3206 3207 3208 3207 3207 3207 3208 3209
3185 3186 3188 3189 3190 3190 3190 3191 3192 3193 3193 3194 3195 3194 3195 3195 3196 3196 3196 3196 3197 3198 3199 3200 3201 3202 3203 3204 3205 3205 3206 3205 3205 3205 3206 3206 3206 3206 3207 3207 3208 3208 3210
3186 3188 3189 3191 3192 3192 3192 3193 3195 3196 3196 3196 3196 3197 3197 3197 3198 3198 3198 3198 3199 3200 3201 3202 3203 3204 3204 3205 3205 3206 3206 3206 3205 3205 3205 3206 3207 3207 3207 3206 3207 3207 3209
3188 3189 3191 3193 3193 3194 3194 3196 3197 3197 3198 3198 3198 3199 3199 3200 3200 3201 3200 3201 3201 3201 3202 3203 3203 3204 3205 3206 3207 3207 3206 3205 3205 3205 3206 3207 3207 3208 3207 3206 3207 3207 3207
3189 3191 3193 3194 3194 3196 3197 3198 3199 3200 3200 3201 3201 3201 3202 3202 3202 3202 3202 3202 3202 3203 3204 3204 3205 3206 3206 3206 3206 3206 3206 3205 3206 3206 3207 3207 3207 3208 3208 3208 3208 3209 3211
3191 3193 3194 3195 3197 3197 3199 3199 3200 3201 3202 3203 3203 3204 3204 3205 3205 3205 3205 3204 3205 3205 3205 3205 3206 3206 3206 3206 3206 3207 3207 3207 3207 3207 3207 3208 3207 3208 3208 3209 3210 3210 3211
3193 3193 3195 3197 3197 3199 3200 3201 3202 3202 3203 3205 3205 3206 3207 3207 3207 3207 3207 3206 3206 3206 3206 3206 3206 3207 3207 3208 3207 3208 3208 3207 3207 3207 3207 3207 3208 3207 3208 3209 3210 3210 3210
3193 3195 3197 3198 3198 3200 3201 3202 3203 3204 3205 3206 3207 3208 3208 3209 3209 3209 3209 3208 3208 3208 3208 3208 3208 3208 3208 3207 3208 3208 3207 3207 3207 3207 3207 3207 3208 3208 3208 3208 3208 3208 3209
3195 3197 3198 3198 3199 3201 3202 3203 3204 3206 3206 3207 3207 3209 3209 3210 3210 3210 3210 3210 3210 3210 3210 3209 3208 3208 3208 3208 3208 3208 3208 3207 3207 3207 3207 3207 3206 3208 3207 3207 3208 3208 3208
3197 3198 3199 3200 3200 3201 3203 3204 3206 3206 3208 3209 3209 3210 3210 3210 3210 3211 3211 3211 3211 3211 3211 3211 3210 3210 3209 3209 3209 3208 3208 3208 3207 3207 3206 3206 3206 3206 3206 3206 3206 3206 3205
3199 3200 3201 3201 3202 3203 3204 3206 3207 3207 3209 3209 3210 3211 3211 3211 3212 3212 3212 3212 3212 3212 3211 3212 3212 3211 3211 3211 3210 3210 3209 3208 3206 3206 3206 3205 3204 3204 3204 3205 3205 3205 3205
3200 3201 3202 3202 3203 3204 3205 3207 3208 3208 3209 3210 3210 3211 3211 3212 3212 3212 3213 3213 3213 3213 3213 3213 3213 3212 3212 3211 3210 3210 3208 3207 3206 3205 3204 3203 3203 3202 3202 3202 3202 3201 3201
3201 3201 3202 3203 3205 3206 3207 3208 3209 3209 3210 3211 3212 3212 3212 3212 3212 3213 3213 3213 3213 3213 3213 3213 3213 3213 3212 3211 3211 3210 3208 3207 3206 3204 3202 3202 3201 3201 3200 3200 3200 3200 3199
3201 3202 3203 3204 3206 3207 3208 3209 3210 3211 3211 3212 3212 3212 3212 3213 3213 3214 3214 3213 3213 3213 3213 3213 3213 3213 3212 3211 3211 3210 3208 3207 3205 3204 3202 3201 3201 3200 3200 3197 3197 3197 3196
3201 3202 3203 3205 3207 3208 3210 3210 3212 3213 3213 3213 3212 3213 3213 3213 3214 3214 3214 3214 3213 3213 3213 3213 3212 3212 3211 3211 3210 3211 3208 3207 3204 3202 3200 3198 3198 3197 3197 3195 3194 3194 3193
3201 3203 3204 3206 3207 3208 3209 3210 3212 3214 3214 3213 3214 3214 3214 3213 3214 3215 3214 3213 3214 3213 3213 3213 3213 3213 3212 3211 3210 3209 3206 3204 3201 3199 3197 3196 3195 3194 3193 3191 3190 3190 3189
3202 3203 3205 3206 3207 3208 3210 3211 3212 3214 3214 3214 3215 3215 3215 3214 3215 3215 3214 3214 3214 3214 3214 3214 3213 3213 3212 3211 3209 3206 3203 3200 3197 3195 3194 3193 3192 3189 3185 3186 3187 3186 3185
3201 3203 3204 3206 3207 3209 3211 3212 3213 3214 3214 3215 3215 3215 3216 3215 3215 3215 3215 3214 3214 3215 3214 3213 3212 3212 3211 3208 3207 3204 3200 3197 3194 3192 3190 3188 3185 3180 3179 3179 3181 3181 3180
3201 3203 3204 3205 3207 3209 3210 3212 3213 3213 3214 3215 3215 3216 3216 3216 3216 3216 3215 3215 3215 3214 3213 3212 3213 3212 3209 3207 3204 3200 3197 3194 3191 3189 3186 3181 3177 3174 3173 3173 3175 3174 3174
3199 3201 3203 3205 3207 3208 3210 3212 3213 3214 3215 3215 3215 3216 3216 3216 3215 3215 3214 3214 3214 3213 3211 3211 3211 3209 3207 3204 3200 3197 3193 3190 3187 3185 3182 3178 3173 3169 3167 3167 3168 3168 3167
3198 3200 3202 3203 3205 3207 3209 3210 3212 3213 3214 3214 3215 3215 3215 3216 3215 3214 3214 3213 3213 3211 3212 3210 3208 3206 3204 3200 3197 3193 3190 3188 3184 3181 3178 3174 3165 3165 3160 3161 3162 3162 3162
3196 3198 3200 3202 3203 3205 3206 3208 3211 3212 3213 3213 3214 3215 3215 3215 3214 3214 3212 3212 3211 3211 3211 3208 3206 3203 3201 3199 3196 3191 3187 3184 3180 3177 3173 3168 3160 3159 3159 3158 3157 3158 3157
3195 3196 3198 3200 3202 3203 3203 3206 3208 3210 3211 3212 3213 3214 3214 3214 3214 3213 3213 3212 3212 3211 3209 3207 3204 3202 3199 3196 3193 3189 3185 3180 3175 3170 3168 3164 3159 3156 3154 3153 3153 3152 3150
3192 3195 3196 3197 3199 3201 3202 3204 3205 3207 3210 3210 3211 3213 3213 3213 3213 3213 3212 3211 3209 3208 3206 3204 3202 3200 3197 3194 3189 3183 3178 3173 3169 3163 3159 3157 3154 3150 3150 3150 3147 3146 3144
3189 3192 3194 3195 3196 3198 3200 3202 3204 3205 3207 3208 3209 3211 3211 3211 3211 3210 3209 3208 3207 3205 3204 3201 3199 3196 3194 3189 3185 3177 3169 3164 3158 3157 3152 3149 3148 3147 3145 3144 3144 3141 3139